Location: *
(50.6972°N, 6.6253°E)
Time: 11:28:16
(UTC+00:00)

Daily predictions for brighter satellites

Satellite Brightness Start Highest point End
(mag) Time Altitude Azimuth Time Altitude Azimuth Time Altitude Azimuth
Gbstr 26 Del rocket 4.1 16:49:46 10° WNW 16:55:22 81° SSW 17:02:20 10° ESE
Cosmos 2239 Rocket 4.5 16:51:54 10° N 16:58:06 80° E 17:04:14 10° SSE
Meteor 1-16 Rocket 4.3 16:54:39 10° S 16:59:56 51° E 17:05:07 10° NNE
Envisat 3.2 16:56:06 10° SE 17:01:01 52° ENE 17:05:58 10° N
Unknown 3.8 16:56:53 10° W 17:01:02 71° N 17:05:11 10° ENE
Unknown 3.6 16:57:37 10° WNW 17:01:19 61° N 17:05:02 10° E
Cosmos 1726 2.6 16:58:43 10° SSE 17:02:05 36° E 17:05:28 10° NNE
Cosmos 1953 Rocket 3.6 16:57:54 10° N 17:02:19 90° ESE 17:06:39 10° S
Starlink (trailer) 3.8 16:58:33 10° W 17:02:42 70° N 17:06:51 10° ENE
Cosmos 1908 4.2 16:59:25 10° SSE 17:02:43 27° E 17:06:01 10° NNE
Cosmos 2278 Rocket 3.0 16:58:06 10° SSE 17:03:02 32° ESE 17:08:00 10° NE
Unknown 3.8 17:00:15 10° W 17:04:23 70° NNW 17:08:32 10° ENE
Falcon 9 debris 3.1 17:01:13 10° WNW 17:04:40 89° SW 17:08:08 10° ESE
Okean-O 2.6 17:00:32 10° SSE 17:04:58 80° ENE 17:09:27 10° NNW
Unknown 3.2 17:01:30 10° WNW 17:05:03 81° NNE 17:08:34 10° ESE
H-2A R/B 4.1 17:04:25 10° NE 17:05:15 10° NE 17:06:06 10° NE
Unknown 3.8 17:01:55 10° W 17:06:03 69° N 17:10:12 10° ENE
Meteor 1-11 4.4 17:01:44 10° N 17:07:25 55° ENE 17:13:06 10° SSE
Cosmos 1821 Rocket 4.2 17:01:51 10° NNW 17:07:59 80° W 17:14:09 10° S
Cosmos 1605 Rocket 4.2 17:02:40 10° N 17:08:42 49° ENE 17:14:35 10° SSE
FengYun 1-2 T 4.4 17:04:26 10° SE 17:09:53 53° ENE 17:15:19 10° N
Cosmos 1844 3.8 17:04:16 10° SSW 17:10:01 87° WNW 17:15:52 10° NNE
Cosmos 1356 3.7 17:07:03 10° S 17:10:20 43° E 17:13:38 10° NNE
Unknown 3.8 17:06:38 10° W 17:10:46 67° N 17:14:53 10° ENE
Cosmos 1934 Rocket 4.0 17:05:22 10° N 17:11:45 75° ENE 17:18:07 10° SSE
Cosmos 1953 2.7 17:07:46 10° SSW 17:11:49 70° WNW 17:15:54 10° N
Unknown 3.8 17:08:34 10° W 17:12:42 67° N 17:16:48 10° ENE
Unknown 3.8 17:10:31 10° W 17:14:40 67° N 17:18:42 11° ENE
Cosmos 1606 Rocket 3.7 17:10:26 10° SSW 17:14:48 79° W 17:19:11 10° N
Unknown 3.8 17:11:53 10° W 17:16:03 66° N 17:20:02 11° ENE
CSL-04 Rocket 4.0 17:11:01 10° SE 17:16:16 47° ENE 17:21:29 10° N
Unknown 3.8 17:13:35 10° W 17:17:43 66° N 17:21:36 12° ENE
USA 238 DEB 4.4 17:12:06 10° S 17:17:49 31° ESE 17:23:42 10° NE
USA 238 4.4 17:12:14 10° S 17:17:56 31° ESE 17:23:47 10° ENE
COBE Rocket 4.1 17:14:07 10° NNE 17:19:12 55° E 17:24:10 10° S
Unknown 3.8 17:15:22 10° W 17:19:30 65° N 17:23:18 12° ENE
Cosmos 2263 Rocket 4.2 17:15:30 10° W 17:19:55 23° NW 17:24:18 10° NNE
Meteor 2-10 4.0 17:16:31 10° S 17:21:27 59° E 17:26:25 10° NNE
Cosmos 1076 Rocket 4.5 17:18:10 10° N 17:21:54 26° ENE 17:25:35 10° SE
Unknown 3.8 17:18:42 10° W 17:22:50 64° N 17:26:30 13° ENE
Unknown 3.8 17:18:46 10° W 17:22:54 65° N 17:26:34 13° ENE
CZ-4 R/B 4.5 17:18:57 10° SSE 17:22:59 57° ENE 17:27:03 10° N
Nadezhda 3 Rocket 4.4 17:17:51 10° SSW 17:24:08 74° W 17:30:33 10° N
Unknown 3.8 17:20:14 10° W 17:24:22 64° N 17:27:58 13° ENE
Unknown 3.2 17:23:13 10° WNW 17:26:44 78° SSW 17:30:03 11° ESE
Unknown 3.8 17:23:30 10° W 17:27:38 64° N 17:31:06 14° ENE
Unknown 3.8 17:26:53 10° W 17:31:00 63° N 17:34:20 15° ENE
YAOGAN 6 2.6 17:28:27 10° SSE 17:32:03 62° ENE 17:35:38 10° N
Unknown 3.8 17:28:36 10° W 17:32:43 63° N 17:35:59 16° ENE
Cosmos 292 Rocket 3.7 17:28:06 10° SSW 17:32:51 81° ESE 17:37:37 10° NNE
Cosmos 2058 4.0 17:29:31 10° NNE 17:33:02 25° ENE 17:36:30 10° SE
Cosmos 1833 Rocket 2.7 17:27:25 10° NNW 17:33:05 82° ENE 17:38:43 10° SSE
Unknown 3.8 17:30:16 10° W 17:34:23 63° N 17:37:34 16° ENE
Unknown 3.6 17:30:38 10° WNW 17:34:27 64° N 17:37:14 17° E
Cosmos 1812 Rocket 4.3 17:31:39 10° SSE 17:35:32 31° E 17:39:27 10° NNE
Unknown 3.8 17:31:57 10° W 17:36:05 63° N 17:39:11 17° ENE
Unknown 3.8 17:35:18 10° W 17:39:25 62° N 17:42:23 18° ENE
NOSS 3-2 (A) 4.1 17:35:48 10° S 17:40:55 33° ESE 17:46:23 11° NE
Unknown 3.8 17:37:01 10° W 17:41:08 62° N 17:44:02 19° ENE
Cosmos 1328 4.4 17:37:55 10° NNW 17:41:51 59° W 17:45:44 10° S
Unknown 3.8 17:38:36 10° W 17:42:43 62° N 17:45:33 19° ENE
SKYMED 2 3.5 17:38:59 10° NNE 17:43:19 66° ESE 17:47:38 10° S
Cosmos 2151 4.4 17:40:35 10° NNE 17:43:37 18° ENE 17:44:07 18° ENE
Ariane Rocket 3.4 17:39:01 10° SE 17:43:44 40° ENE 17:48:29 10° N
Unknown 3.8 17:40:13 10° W 17:44:21 62° N 17:47:06 20° ENE
Cosmos 2228 4.2 17:40:42 10° SSW 17:44:54 47° WNW 17:49:06 10° N
YAOGAN 1 2.5 17:41:57 10° SSE 17:46:16 74° ENE 17:50:36 10° N
Unknown 3.9 17:42:14 10° W 17:46:22 62° N 17:49:03 21° ENE
NOSS 3-3 (A) 4.5 17:39:56 10° NW 17:47:18 81° NE 17:55:29 10° SE
NOSS 3-3 (C) 4.5 17:40:02 10° NW 17:47:23 81° NE 17:55:35 10° SE
Unknown 3.8 17:43:25 10° W 17:47:32 62° N 17:50:10 21° ENE
Unknown 3.8 17:46:45 10° W 17:50:52 62° N 17:53:22 22° ENE
Cosmos 921 Rocket 4.2 17:48:00 10° SW 17:52:18 45° WNW 17:56:35 10° N
Unknown 3.8 17:48:26 10° W 17:52:33 62° N 17:54:58 23° ENE
Cosmos 2100 Rocket 4.2 17:47:46 10° N 17:53:43 46° ENE 17:59:35 10° SE
Cosmos 1300 3.3 17:50:40 10° SSE 17:54:06 32° E 17:57:32 10° NNE
Unknown 3.8 17:50:19 10° W 17:54:26 62° N 17:56:46 24° ENE
Cosmos 1939 Rocket 3.1 17:51:09 10° SE 17:55:00 48° ENE 17:58:57 10° N
HJ-1C 4.2 17:54:55 28° E 17:55:30 30° ENE 17:58:28 10° N
Unknown 3.8 17:51:46 10° W 17:55:53 62° N 17:58:10 25° ENE
Unknown 3.5 17:52:07 10° WNW 17:56:00 67° N 17:57:58 27° E
Abrixas rocket 2.7 17:53:46 10° WSW 17:56:42 40° SSE 17:57:37 30° ESE
Cosmos 1937 Rocket 4.2 17:52:19 10° N 17:56:58 33° NE 17:59:13 23° E
Unknown 3.8 17:53:23 10° W 17:57:30 62° N 17:59:43 26° ENE
Cosmos 990 Rocket 4.4 17:52:40 10° NNW 17:57:35 40° ENE 18:00:41 21° ESE
CZ-2D R/B 3.3 17:54:25 10° SSE 17:58:11 56° ENE 18:02:01 10° N
Unknown 3.8 17:56:47 10° W 18:00:54 62° N 18:02:58 27° ENE
Unknown 3.8 17:58:25 10° W 18:02:32 62° N 18:04:32 28° ENE
ADEOS Rocket 4.3 17:57:38 10° NE 18:03:34 24° E 18:07:28 16° SE
Cosmos 2082 Rocket 2.2 17:58:13 10° NNW 18:03:58 86° WSW 18:09:40 10° SSE
Unknown 3.8 18:00:06 10° W 18:04:14 62° N 18:06:09 29° ENE
CSL-04 Debris 4.3 17:59:09 10° SSE 18:04:36 78° WSW 18:10:09 10° NNW
Unknown 3.7 18:01:39 10° WNW 18:05:41 63° N 18:07:24 32° ENE
BREEZE-M DEB (TANK) 4.2 18:01:22 10° WNW 18:05:47 61° SSW 18:18:42 10° SE
Unknown 3.8 18:01:45 10° W 18:05:51 62° N 18:07:43 30° ENE
NOSS 3-2 (C) 4.0 18:01:33 10° S 18:06:40 33° ESE 18:09:34 23° ENE
Cosmos 1153 Rocket 4.4 18:02:37 10° N 18:08:48 85° ENE 18:14:58 10° S
ASTEX 1 4.1 18:04:06 10° N 18:08:58 58° WNW 18:13:51 10° SSW
Unknown 3.8 18:05:09 10° W 18:09:16 62° N 18:10:59 33° ENE
USA 116 3.1 18:06:17 10° NNE 18:09:30 76° ESE 18:12:57 10° S
Unknown 3.8 18:06:12 10° W 18:10:20 62° N 18:11:59 33° ENE
Cosmos 2016 Rocket 4.4 18:05:06 10° N 18:11:02 41° ENE 18:15:24 18° SE
Unknown 3.8 18:06:56 10° WNW 18:11:04 63° N 18:12:41 34° ENE
Unknown 3.8 18:08:15 10° WNW 18:12:19 63° N 18:13:50 35° ENE
Unknown 3.8 18:08:39 10° WNW 18:12:47 63° N 18:14:20 35° ENE
Cosmos 1844 Rocket 4.4 18:10:21 10° WSW 18:15:18 30° NW 18:20:15 10° NNE
Unknown 3.8 18:11:48 10° WNW 18:15:56 63° N 18:17:21 37° ENE
Unknown 3.8 18:15:05 10° WNW 18:19:13 63° N 18:20:30 40° ENE
Unknown 3.8 18:16:47 10° WNW 18:20:55 63° N 18:22:08 41° ENE
Unknown 3.8 18:18:25 10° WNW 18:22:33 63° N 18:23:42 43° ENE
Lacrosse 5 2.7 18:18:58 10° WNW 18:23:48 46° SW 18:27:30 16° SSE
Unknown 3.8 18:20:06 10° WNW 18:24:14 64° N 18:25:18 45° ENE
Meteor 2-1 Rocket 4.3 18:19:47 10° SSE 18:25:06 50° E 18:30:30 10° NNE
SL-27 R/B 4.2 18:22:13 10° N 18:23:38 19° NNE 18:23:38 19° NNE
SJ 16-02 1.6 18:21:07 10° NNW 18:25:21 44° ENE 18:25:45 43° ENE
CZ-4 R/B 3.1 18:22:14 10° SSW 18:26:06 36° W 18:30:03 10° NNW
SPOT 3 Rocket 4.0 18:26:38 36° E 18:27:32 39° ENE 18:32:23 10° N
In-Cosmos 22 Rocket 4.0 18:22:17 10° N 18:27:42 70° ENE 18:32:45 12° SSE
ATLAS CENTAUR R/B 3.1 18:26:09 10° NNW 18:29:44 21° NNE 18:30:12 21° NNE
Unknown 3.7 18:26:46 10° WNW 18:30:55 65° N 18:31:42 51° ENE
COSMO-SKYMED 1 3.7 18:27:12 10° N 18:31:21 44° WNW 18:35:29 10° SW
Unknown 3.7 18:28:28 10° WNW 18:32:37 65° N 18:33:20 53° ENE
Cosmos 2084 Rocket 4.2 18:29:26 10° NW 18:33:44 52° SW 18:36:06 24° SSE
Unknown 3.7 18:30:03 10° WNW 18:34:12 66° N 18:34:51 55° ENE
ATLAS 3B R/B 3.1 18:28:13 10° S 18:34:16 37° ESE 18:35:04 36° ESE
ATLAS 5 CENTAUR R/B 3.7 18:31:51 10° WNW 18:35:40 24° NNW 18:39:02 13° NNE
Unknown 3.7 18:31:46 10° WNW 18:35:54 66° N 18:36:29 57° NE
Unknown 3.6 18:33:25 10° WNW 18:37:33 66° N 18:38:04 59° NE
Unknown 3.4 18:35:44 10° WNW 18:39:27 65° SSW 18:39:39 63° S
Unknown 3.6 18:36:44 10° WNW 18:40:53 67° N 18:41:16 63° NE
CENTAUR R/B 2.8 18:36:21 10° S 18:41:57 42° ESE 18:42:36 40° ESE
Starlink (trailer) 3.6 18:38:24 10° WNW 18:42:33 68° N 18:42:51 65° NE
H-2A R/B 2.4 18:42:58 45° E 18:43:24 46° ENE 18:48:35 10° N
Cosmos 1459 Rocket 3.9 18:37:14 10° N 18:43:29 90° E 18:49:49 10° S
Unknown 3.6 18:40:06 10° WNW 18:44:15 68° N 18:44:29 66° NE
Cosmos 2061 Rocket 3.9 18:38:52 10° N 18:45:09 72° E 18:49:20 22° SSE
SJ-6B 4.2 18:47:30 26° N 18:47:30 26° N 18:49:22 10° N
Unknown 3.6 18:41:46 10° WNW 18:45:55 69° N 18:46:05 68° NNE
Cosmos 2278 Rocket 2.9 18:41:20 10° SW 18:46:53 53° NW 18:52:29 10° NNE
Cosmos 1898 Rocket 3.5 18:42:16 10° NNW 18:47:35 85° WSW 18:50:02 33° SSE
SJ-11-01 4.1 18:46:45 53° SE 18:47:46 75° ENE 18:52:28 10° N
Cosmos 1766 Rocket 3.6 18:44:44 10° N 18:48:35 60° NE 18:48:35 60° NE
Unknown 3.6 18:46:26 10° WNW 18:50:31 71° N 18:50:31 71° N
Cosmos 2297 3.6 18:44:58 10° SSW 18:50:37 66° ESE 18:53:21 31° NE
Unknown 3.6 18:48:24 10° WNW 18:52:27 71° N 18:52:27 71° N
Unknown 3.7 18:50:24 10° WNW 18:54:23 70° N 18:54:23 70° N
Unknown 3.7 18:51:43 10° WNW 18:55:40 70° NNW 18:55:40 70° NNW
Unknown 3.8 18:53:25 10° WNW 18:57:15 68° NNW 18:57:15 68° NNW
Okean 3 Rocket 3.7 18:54:45 10° NNW 18:59:19 78° W 19:00:14 55° S
Unknown 3.8 18:55:11 10° WNW 18:58:57 68° NW 18:58:57 68° NW
Unknown 3.9 18:58:30 10° WNW 19:02:08 64° NW 19:02:08 64° NW
Unknown 3.9 18:58:35 10° WNW 19:02:12 64° NW 19:02:12 64° NW
Resurs 01 Rocket 3.5 19:06:07 19° NNE 19:06:07 19° NNE 19:07:38 10° N
Unknown 4.0 19:00:03 10° WNW 19:03:37 62° NW 19:03:37 62° NW
ARGOS 3.1 19:05:12 63° ENE 19:05:12 63° ENE 19:10:30 10° N
Unknown 4.1 19:03:18 10° WNW 19:06:45 58° NW 19:06:45 58° NW
USA 238 DEB 3.8 19:01:28 10° SW 19:08:13 75° NW 19:12:35 25° NE
USA 238 3.8 19:01:35 10° SW 19:08:19 76° NW 19:12:38 25° NE
Cosmos 1892 3.9 19:04:33 10° NNW 19:06:54 36° NNW 19:06:54 36° NNW
Cosmos 2058 4.3 19:06:09 10° NNW 19:10:04 38° W 19:12:59 16° SSW
Unknown 4.2 19:06:40 10° WNW 19:09:59 54° WNW 19:09:59 54° WNW
Cosmos 44 3.6 19:05:56 10° SW 19:09:46 54° SSW 19:09:46 54° SSW
Cosmos 2173 Rocket 4.5 19:05:37 10° NNW 19:11:45 59° W 19:17:46 10° S
Unknown 4.3 19:08:24 10° WNW 19:11:37 52° WNW 19:11:37 52° WNW
Unknown 4.4 19:10:03 10° WNW 19:13:13 51° WNW 19:13:13 51° WNW
Unknown 4.5 19:11:44 10° WNW 19:14:50 49° WNW 19:14:50 49° WNW
Cosmos 1864 Rocket 4.3 19:11:05 10° N 19:17:17 89° W 19:18:58 51° S
Cosmos 1802 Rocket 4.4 19:14:06 10° NNW 19:20:26 62° W 19:26:33 11° S
Cosmos 2151 3.7 19:17:03 10° NNW 19:20:43 52° WNW 19:20:43 52° WNW
Meteor 2-3 Rocket 4.4 19:19:21 10° N 19:23:33 44° NNE 19:23:33 44° NNE
Cosmos 2123 Rocket 3.8 19:24:50 51° S 19:26:36 85° E 19:32:54 10° N
Cosmos 468 Rocket 4.3 19:24:01 10° SSW 19:28:19 58° SW 19:28:19 58° SW
NOSS 3-2 (A) 3.8 19:25:24 10° WSW 19:31:19 65° NW 19:33:48 39° NNE
Cosmos 2150 Rocket 4.5 19:26:29 10° NNW 19:30:47 55° N 19:30:47 55° N
Cosmos 2233 Rocket 3.9 19:27:01 10° N 19:32:56 75° NE 19:32:56 75° NE
Cosmos 1725 Rocket 4.1 19:28:07 10° NNW 19:34:23 71° W 19:36:08 48° SSW
CZ-2C R/B 3.6 19:38:10 60° N 19:38:10 60° N 19:42:50 10° NNW
Cosmos 1937 Rocket 4.3 19:34:12 10° NW 19:39:05 45° WSW 19:39:25 44° WSW
Cosmos 2227 Rocket 4.3 19:41:10 10° N 19:43:33 15° NNE 19:43:33 15° NNE
Cosmos 2297 Rocket 4.3 19:45:53 10° N 19:48:12 16° NNE 19:48:12 16° NNE
ADEOS Rocket 3.4 19:42:15 10° NNE 19:50:01 86° WNW 19:54:17 28° SSW
NOSS 3-2 (C) 3.7 19:51:10 10° WSW 19:57:04 66° NW 19:57:04 66° NW
SJ 16-02 3.6 20:00:10 10° NW 20:02:46 22° W 20:02:46 22° W
ATLAS CENTAUR R/B 4.0 20:04:58 10° NW 20:06:23 20° NW 20:06:23 20° NW
Cosmos 1238 Rocket 4.5 20:03:23 10° NNW 20:08:47 57° NW 20:08:47 57° NW
ATLAS 5 CENTAUR R/B 4.2 20:18:03 10° NW 20:20:34 20° NNW 20:20:34 20° NNW
H-2A R/B 3.7 20:23:36 31° W 20:23:36 31° W 20:27:50 10° NNW
ATLAS 3B R/B 3.5 20:18:00 10° WSW 20:22:24 42° WSW 20:22:24 42° WSW
CENTAUR R/B 3.7 20:26:12 10° WSW 20:29:52 37° W 20:29:52 37° W
